Regional Weather Roundup
Issued by NWS Charleston, SC

Current Version | Previous Version | Text Only | Print | Product List | Glossary Off
Versions: 1 2 3 4 5 6 7 8 9 10 11 12 13 14 15 16 17 18 19 20 21 22 23 24 25 26 27 28 29 30 31 32 33 34 35 36 37 38 39 40 41 42 43 44 45 46 47 48 49 50

000
ASUS42 KCHS 291126
RWRCHS

REGIONAL WEATHER ROUNDUP
NATIONAL WEATHER SERVICE CHARLESTON SC
700 AM EDT SUN MAR 29 2015

NOTE: "FAIR" INDICATES FEW OR NO CLOUDS BELOW 12,000 FEET WITH NO
SIGNIFICANT WEATHER AND/OR OBSTRUCTIONS TO VISIBILITY.

NOT ALL STATIONS ARE QUALITY CONTROLLED BY THE NATIONAL
WEATHER SERVICE. USE DATA WITH CAUTION...ESPECIALLY
DEWPOINT OBSERVATIONS.

SCZ027-030-031-034>040-042>050-291200-
...SOUTHEAST SOUTH CAROLINA...

CITY           SKY/WX    TMP DP  RH WIND       PRES   REMARKS
N CHARLESTON   CLEAR     35  23  61 NE9       30.38R WCI  28
WATERFRONT PRK   N/A     39 N/A N/A N17         N/A  WCI  30
MOUNT PLEASANT LGT RAIN  36  21  55 N3        30.39R
PINOPOLIS        N/A     39  25  56 NE15      30.28R WCI  31
MONCKS CORNER  FAIR      36  21  55 N3        30.39R
SUMMERVILLE    FAIR      36  23  60 NE5       30.40R WCI  32
BEAUFORT MCAS  CLEAR     39  23  52 NE10G21   30.37R WCI  32
BEAUFORT ARPT  FAIR      41  28  60 NE20      30.37R
HILTON HEAD IS CLEAR     43  28  56 N9        30.36R
WALTERBORO     SUNNY     34  19  55 NE7       30.40R WCI  28
ALLENDALE      FAIR      36  23  60 N3        30.39R

...SOUTHERN MIDLANDS AND PEE DEE...

CITY           SKY/WX    TMP DP  RH WIND       PRES   REMARKS
GEORGETOWN     NOT AVBL
KINGSTREE      NOT AVBL
ORANGEBURG     CLEAR     33  18  53 NE6       30.39R WCI  28
BARNWELL       FAIR      34  23  64 NE5       30.40R WCI  30
AIKEN          FAIR      30  19  64 CALM      30.42R
MANNING        FLURRIES  30  19  64 CALM      30.40R
COLUMBIA       CLEAR     35  14  42 NE3       30.39R
SUMTER         CLEAR     29  18  65 NE5       30.38R WCI  23
FLORENCE       CLEAR     30  16  56 NE6       30.39R WCI  24
MYRTLE BEACH   CLEAR     34  18  51 N12       30.40R WCI  25
N MYRTLE BEACH CLEAR     32  18  56 N7        30.38R WCI  26

$$

GAZ063-065-086>088-099>101-113>116-118-119-134>141-150-291200-
...SOUTHEAST GEORGIA...

CITY           SKY/WX    TMP DP  RH WIND       PRES   REMARKS
SAVANNAH ARPT  CLEAR     35  27  72 N7        30.36R WCI  29
HUNTER AAF     CLEAR     39  29  67 N6        30.33R WCI  35
FORT STEWART   CLEAR     37  27  67 N5        30.33R WCI  33
STATESBORO     CLEAR     34  26  71 CALM      30.39R
SYLVANIA       SUNNY     36  26  65 NE7       30.39R WCI  30
CLAXTON        FAIR      37  27  65 N3        30.38R

...CSRA...CENTRAL AND FAR SOUTHEAST GEORGIA...

CITY           SKY/WX    TMP DP  RH WIND       PRES   REMARKS
THOMSON        CLEAR     29  29 100 CALM      30.43R
AUGUSTA-BUSH   CLEAR     28  23  81 CALM      30.40R
AUGUSTA-DANIEL CLEAR     37  16  42 NE7       30.39R WCI  32
SWAINSBORO     FAIR      37  14  38 NE3       30.38R
VIDALIA        CLEAR     36  27  69 NE6       30.37R WCI  31
EASTMAN        FAIR      29  29 100 CALM      30.40R
HAZLEHURST     FAIR      36  30  80 NE3       30.35R
ALMA           CLEAR     37  25  61 N5        30.34R WCI  33
WAYCROSS       CLEAR     39  31  72 NE5       30.35R WCI  36
JESUP          FAIR      41  32  70 N5        30.35R
BAXLEY         FAIR      36  30  80 N5        30.35R WCI  32
BRUNSWICK      CLEAR     37  30  75 NW3       30.34R
SAINT SIMONS   CLEAR     40  28  62 N9        30.32R WCI  34

$$

SCZ027-028-034-036>038-045-046-048>050-GAZ119-141-291200-
...LAKE AND SUPPLEMENTAL COASTAL OBSERVATIONS...

STATION/POSITION TIME  TEMP    WIND        PRES    WAVE   SWELL
                       AIR SEA DIR/SP/G            HT/PER HT/PER/DIR
                 (UTC) (F)     (DEG/KT/KT) (MB)    (FT/S) (FT/S/D)
UPR LAKE MARION  NOT AVBL
WINYAH BAY       1045   36      20/  5     1027.0R
LAKE MURRAY      1100   34      50/  2/  5 1028.4R
ACE BASIN NERRS  NOT AVBL
FORT PULASKI     NOT AVBL
SAPELO ISLAND    1100   42     350/  9     1026.0R

$$

ANZ835-935-AMZ111-154-330-350-352-354-370-450-454-472-291200-
...C-MAN AND BUOY OBSERVATIONS...

STATION/POSITION TIME  TEMP    WIND        PRES    WAVE   SWELL
                       AIR SEA DIR/SP/G            HT/PER HT/PER/DIR
                 (UTC) (F)     (DEG/KT/KT) (MB)    (FT/S) (FT/S/D)
BUOY 41004       1050   48 68   20/ 21/ 25 1026.0R   6/ 6   2/ 9
BUOY 41008       1050   51 60   10/ 14/ 17 1025.8R   3/ 4   2/ 50/10
FOLLY BEACH CMAN 1100   40      20/ 18/ 23 1028.4R
CAPERS NEARSHORE NOT AVBL
FRIPP NEARSHORE  1000   47      40/ 23/ 27 1025.1R


STATION/POSITION TIME  TEMP    WIND        PRES    WAVE   SWELL
                       AIR SEA DIR/SP/G            HT/PER HT/PER/DIR
                 (UTC) (F)     (DEG/KT/KT) (MB)    (FT/S) (FT/S/D)
5E ST. MARYS GA  1021      60                N/A     3/ 4
FRYING PAN BUOY  1050   44 64   10/ 19/ 25 1027.1R   6/ 6   2/100/10
BUOY 41025       NOT AVBL
CAPE LOOKOUT NC  1100   34     340/ 16/ 20 1027.3R
BUOY 41002       1050   56 68  330/ 19/ 23 1022.5R   8/ 7
BUOY 41010       1020   65 76  310/ 14/ 19 1022.5R
ST AUGUSTINE FL  1100   46 59  310/  7/  8 1026.7R


$$



USA.gov is the U.S. government's official web portal to all federal, state and local government web resources and services.